Location: Bacharowice
(49.9333°N, 19.5833°E)
Time: 00:53:24
(UTC+00:00)

USA 305 - Pass Details

Date: 19 September 2021
Orbit: 547 x 588 km, 54.0° (Epoch: 03 October)

Event Time Altitude Azimuth Distance (km) Brightness Sun altitude
Rises 18:46:13 0° 276° (W) 2,743 7.6 -19.4°
Reaches altitude 10° 18:48:30 10° 282° (WNW) 1,855 6.6 -19.7°
Maximum altitude 18:52:36 48° 357° (N) 750 3.6 -20.3°
Enters shadow 18:54:10 32° 52° (NE) 996 3.9 -20.5°
